Port Fourchon Terminal, LA

11:38 PM CDT on March 22, 2017 (GMT -0500)
Port Fourchon Terminal

Weather History for KXPY - January, 2014

Change the Weather History Date:

Sunday, January 12, 2014

  Actual Average (K9F2) Record (K9F2)
Temperature  
Mean Temperature 56 °F -  
Max Temperature 62 °F 60 °F 75 °F (2000)
Min Temperature 50 °F 53 °F 33 °F (2011)
Degree Days  
Heating Degree Days 9    
Growing Degree Days 6 (Base 50)    
Moisture  
Dew Point 46 °F    
Average Humidity 64    
Maximum Humidity 88    
Minimum Humidity 39    
Precipitation  
Precipitation 0.00 in - - ()
Sea Level Pressure  
Sea Level Pressure 30.17 in    
Wind  
Wind Speed 4 mph (ESE)    
Max Wind Speed 13 mph    
Max Gust Speed 18 mph    
Visibility 10 miles    
Events      
Averages and records for this station are not official NWS values.
T = Trace of Precipitation, MM = Missing Value Source: NWS Daily Summary

Daily Weather History Graph

Daily Weather History Graph

Search for Another Location

Airport or City:

Trip Planner

Search our weather history database for the weather conditions in past years. The results will help you decide how hot, cold, wet, or windy it might be!

Date:

Astronomy

Jan. 12, 2014 Rise Set
Actual Time 6:55 AM CST 5:22 PM CST
Civil Twilight 6:30 AM CST 5:48 PM CST
Nautical Twilight 6:00 AM CST 6:17 PM CST
Astronomical Twilight 5:32 AM CST 6:46 PM CST
Moon 2:49 PM CST (1/12) 3:56 AM CST (1/12)
Length of Visible Light 11h 18m
Length of Day
10h 26m
Waxing Gibbous, 90% of the Moon is Illuminated
Jan 12
Waxing Gibbous
Jan 15
Full
Jan 23
Last Quarter
Jan 30
New
Feb 6
First Quarter

Hourly Weather History & Observations

Time (CST) Temp. Dew Point Humidity Pressure Visibility Wind Dir Wind Speed Gust Speed Precip Events Conditions
12:15 AM 55.4 °F 41.0 °F 58% 30.14 in 10.0 mi Calm Calm - N/A   Clear
12:35 AM 53.6 °F 42.8 °F 67% 30.14 in 10.0 mi Calm Calm - N/A   Clear
12:55 AM 55.4 °F 39.2 °F 54% 30.15 in 10.0 mi Calm Calm - N/A   Clear
1:15 AM 53.6 °F 42.8 °F 67% 30.15 in 10.0 mi West 3.5 mph - N/A   Clear
1:35 AM 53.6 °F 42.8 °F 67% 30.15 in 10.0 mi Calm Calm - N/A   Clear
1:55 AM 51.8 °F 44.6 °F 76% 30.15 in 10.0 mi Calm Calm - N/A   Clear
2:15 AM 50.0 °F 46.4 °F 87% 30.15 in 10.0 mi Calm Calm - N/A   Clear
2:35 AM 51.8 °F 46.4 °F 82% 30.16 in 10.0 mi Calm Calm - N/A   Clear
2:55 AM 53.6 °F 41.0 °F 62% 30.16 in 10.0 mi Calm Calm - N/A   Clear
3:15 AM 53.6 °F 39.2 °F 58% 30.15 in 10.0 mi Calm Calm - N/A   Clear
3:35 AM 51.8 °F 42.8 °F 71% 30.16 in 10.0 mi Calm Calm - N/A   Clear
3:55 AM 50.0 °F 42.8 °F 76% 30.16 in 10.0 mi Calm Calm - N/A   Clear
4:15 AM 51.8 °F 42.8 °F 71% 30.16 in 10.0 mi Calm Calm - N/A   Clear
4:35 AM 50.0 °F 42.8 °F 76% 30.16 in 10.0 mi Calm Calm - N/A   Clear
4:55 AM 50.0 °F 42.8 °F 76% 30.17 in 10.0 mi Calm Calm - N/A   Clear
5:15 AM 51.8 °F 42.8 °F 71% 30.17 in 10.0 mi Calm Calm - N/A   Clear
5:35 AM 50.0 °F 44.6 °F 82% 30.17 in 10.0 mi Calm Calm - N/A   Clear
5:55 AM 51.8 °F 41.0 °F 67% 30.18 in 10.0 mi Calm Calm - N/A   Clear
6:15 AM 51.8 °F 39.2 °F 62% 30.18 in 9.0 mi Calm Calm - N/A   Clear
6:35 AM 51.8 °F 41.0 °F 67% 30.18 in 9.0 mi Calm Calm - N/A   Clear
6:55 AM 51.8 °F 42.8 °F 71% 30.19 in 10.0 mi Calm Calm - N/A   Clear
7:15 AM 53.6 °F 42.8 °F 67% 30.20 in 10.0 mi East 3.5 mph - N/A   Clear
7:35 AM 53.6 °F 44.6 °F 72% 30.20 in 10.0 mi East 4.6 mph - N/A   Clear
7:55 AM 55.4 °F 46.4 °F 72% 30.21 in 10.0 mi East 4.6 mph - N/A   Clear
8:15 AM 57.2 °F 48.2 °F 72% 30.22 in 9.0 mi North - - N/A   Clear
8:35 AM 59.0 °F 44.6 °F 59% 30.22 in 10.0 mi ESE 5.8 mph - N/A   Clear
8:55 AM 59.0 °F 44.6 °F 59% 30.23 in 10.0 mi ESE 5.8 mph - N/A   Clear
9:15 AM 60.8 °F 44.6 °F 55% 30.24 in 10.0 mi ESE 6.9 mph - N/A   Clear
9:35 AM 60.8 °F 42.8 °F 52% 30.25 in 10.0 mi ESE 8.1 mph - N/A   Clear
9:55 AM 60.8 °F 39.2 °F 45% 30.25 in 10.0 mi ESE 9.2 mph - N/A   Clear
10:15 AM 60.8 °F 37.4 °F 42% 30.25 in 10.0 mi ESE 6.9 mph 13.8 mph N/A   Clear
10:35 AM 62.6 °F 39.2 °F 42% 30.24 in 10.0 mi ESE 8.1 mph - N/A   Clear
10:55 AM 62.6 °F 37.4 °F 39% 30.23 in 10.0 mi SE 10.4 mph - N/A   Clear
11:15 AM 62.6 °F 41.0 °F 45% 30.22 in 10.0 mi ESE 9.2 mph - N/A   Clear
11:35 AM 62.6 °F 37.4 °F 39% 30.21 in 10.0 mi SE 10.4 mph - N/A   Clear
11:55 AM 62.6 °F 39.2 °F 42% 30.20 in 10.0 mi ESE 10.4 mph - N/A   Clear
12:15 PM 62.6 °F 39.2 °F 42% 30.19 in 10.0 mi SE 11.5 mph - N/A   Clear
12:35 PM 62.6 °F 39.2 °F 42% 30.18 in 10.0 mi ESE 10.4 mph - N/A   Clear
12:55 PM 62.6 °F 41.0 °F 45% 30.17 in 10.0 mi SE 9.2 mph - N/A   Clear
1:15 PM 62.6 °F 41.0 °F 45% 30.16 in 10.0 mi ESE 9.2 mph 15.0 mph N/A   Clear
1:35 PM 62.6 °F 41.0 °F 45% 30.16 in 10.0 mi ESE 11.5 mph 18.4 mph N/A   Clear
1:55 PM 62.6 °F 41.0 °F 45% 30.15 in 10.0 mi ESE 10.4 mph 17.3 mph N/A   Clear
2:15 PM 62.6 °F 42.8 °F 48% 30.15 in 10.0 mi ESE 12.7 mph - N/A   Clear
2:35 PM 62.6 °F 41.0 °F 45% 30.15 in 10.0 mi ESE 11.5 mph - N/A   Clear
2:55 PM 60.8 °F 41.0 °F 48% 30.14 in 10.0 mi ESE 10.4 mph - N/A   Clear
3:15 PM 60.8 °F 42.8 °F 52% 30.15 in 10.0 mi ESE 10.4 mph - N/A   Clear
3:35 PM 62.6 °F 42.8 °F 48% 30.14 in 10.0 mi ESE 9.2 mph - N/A   Clear
3:55 PM 62.6 °F 44.6 °F 52% 30.14 in 10.0 mi ESE 9.2 mph - N/A   Clear
4:15 PM 62.6 °F 46.4 °F 55% 30.14 in 10.0 mi ESE 6.9 mph - N/A   Clear
4:35 PM 60.8 °F 48.2 °F 63% 30.14 in 10.0 mi ESE 6.9 mph - N/A   Clear
4:55 PM 60.8 °F 48.2 °F 63% 30.15 in 10.0 mi ESE 6.9 mph - N/A   Clear
5:15 PM 60.8 °F 48.2 °F 63% 30.15 in 10.0 mi ESE 6.9 mph - N/A   Clear
5:35 PM 60.8 °F 48.2 °F 63% 30.15 in 10.0 mi ESE 6.9 mph - N/A   Clear
5:55 PM 60.8 °F 50.0 °F 68% 30.15 in 10.0 mi ESE 5.8 mph - N/A   Clear
6:15 PM 59.0 °F 50.0 °F 72% 30.14 in 10.0 mi East 5.8 mph - N/A   Clear
6:35 PM 59.0 °F 50.0 °F 72% 30.14 in 10.0 mi East 5.8 mph - N/A   Partly Cloudy
6:55 PM 59.0 °F 50.0 °F 72% 30.15 in 10.0 mi East 4.6 mph - N/A   Partly Cloudy
7:15 PM 59.0 °F 51.8 °F 77% 30.15 in 10.0 mi East 4.6 mph - N/A   Partly Cloudy
7:35 PM 60.8 °F 51.8 °F 72% 30.15 in 10.0 mi East 6.9 mph - N/A   Scattered Clouds
7:55 PM 60.8 °F 51.8 °F 72% 30.15 in 10.0 mi ESE 5.8 mph - N/A   Mostly Cloudy
8:15 PM 60.8 °F 53.6 °F 77% 30.16 in 10.0 mi ESE 8.1 mph - N/A   Mostly Cloudy
8:35 PM 60.8 °F 53.6 °F 77% 30.16 in 10.0 mi ESE 5.8 mph - N/A   Mostly Cloudy
8:55 PM 60.8 °F 53.6 °F 77% 30.16 in 10.0 mi ESE 5.8 mph - N/A   Scattered Clouds
9:15 PM 60.8 °F 55.4 °F 82% 30.15 in 10.0 mi ESE 8.1 mph - N/A   Scattered Clouds
9:35 PM 60.8 °F 55.4 °F 82% 30.15 in 10.0 mi ESE 5.8 mph - N/A   Scattered Clouds
9:55 PM 60.8 °F 55.4 °F 82% 30.15 in 10.0 mi ESE 4.6 mph - N/A   Scattered Clouds
10:15 PM 60.8 °F 55.4 °F 82% 30.14 in 10.0 mi ESE 5.8 mph - N/A   Scattered Clouds
10:35 PM 60.8 °F 55.4 °F 82% 30.14 in 10.0 mi ESE 5.8 mph - N/A   Mostly Cloudy
10:55 PM 60.8 °F 57.2 °F 88% 30.13 in 10.0 mi ESE 5.8 mph - N/A   Mostly Cloudy
11:15 PM 60.8 °F 57.2 °F 88% 30.12 in 10.0 mi SE 5.8 mph - N/A   Mostly Cloudy
11:35 PM 60.8 °F 57.2 °F 88% 30.11 in 10.0 mi SE 4.6 mph - N/A   Mostly Cloudy
11:55 PM 60.8 °F 57.2 °F 88% 30.10 in 10.0 mi SSE 5.8 mph - N/A   Scattered Clouds